DE2MSF Weather Reports


Display with metric or nautical units.
time (UTC)temp
F
wind
direction
speed
MPH
gust
MPH
rain 1hr
in
rain 24hr
in
rain mn
in
humidity
%
barometer
mb
20260902161553 65 260 0.0 2.0 0.00 0.06 0.06 80 1019.5
20260902160053 64 273 0.0 2.0 0.00 0.06 0.06 81 1019.4
20260902153052 63 299 1.0 4.0 0.06 0.06 0.06 86 1019.7
20260902151553 64 306 2.0 7.0 0.06 0.06 0.06 87 1019.7
20260902150052 66 294 4.0 11.0 0.06 0.06 0.06 83 1020.0
20260902144552 71 257 2.0 8.0 0.00 0.00 0.00 66 1019.2
20260902143053 71 251 4.0 9.0 0.00 0.00 0.00 65 1019.4
20260902141554 71 249 5.0 11.0 0.00 0.00 0.00 63 1019.5
20260902140052 72 264 5.0 11.0 0.00 0.00 0.00 62 1019.2
20260902134552 73 289 3.0 9.0 0.00 0.00 0.00 59 1019.2
20260902131551 72 263 4.0 9.0 0.00 0.00 0.00 62 1019.3
20260902130052 71 270 4.0 11.0 0.00 0.00 0.00 64 1019.5
20260902124552 72 265 4.0 11.0 0.00 0.00 0.00 62 1019.8
20260902123051 71 254 5.0 14.0 0.00 0.00 0.00 63 1019.6
20260902121553 71 278 4.0 13.0 0.00 0.00 0.00 63 1019.7
20260902120051 71 284 4.0 11.0 0.00 0.00 0.00 62 1019.8
20260902114551 70 272 5.0 11.0 0.00 0.00 0.00 63 1019.7
20260902111553 72 274 5.0 11.0 0.00 0.00 0.00 59 1019.7
20260902104551 72 282 4.0 9.0 0.00 0.00 0.00 57 1019.6
20260902100050 71 250 4.0 14.0 0.00 0.00 0.00 59 1020.1
20260902094550 69 247 7.0 14.0 0.00 0.00 0.00 62 1019.8
20260902093051 69 240 6.0 11.0 0.00 0.00 0.00 64 1019.4
20260902091551 69 250 6.0 14.0 0.00 0.01 0.00 65 1019.5
20260902090051 69 259 6.0 14.0 0.00 0.01 0.00 65 1019.7
20260902084552 68 252 4.0 11.0 0.00 0.01 0.00 65 1019.9
20260902083050 67 284 6.0 11.0 0.00 0.01 0.00 66 1019.5
20260902081550 68 269 4.0 11.0 0.00 0.01 0.00 65 1019.7
20260902080050 67 230 3.0 8.0 0.00 0.01 0.00 68 1019.5
20260902074550 65 245 4.0 9.0 0.00 0.01 0.00 73 1019.6
20260902071549 62 234 4.0 7.0 0.00 0.02 0.00 79 1019.5
20260902070050 61 241 3.0 8.0 0.00 0.02 0.00 82 1019.4
20260902064550 60 247 3.0 6.0 0.00 0.02 0.00 84 1019.4
20260902063050 60 219 2.0 6.0 0.00 0.02 0.00 84 1019.3
20260902054551 58 236 1.0 4.0 0.00 0.02 0.00 86 1019.4
20260902053050 58 213 1.0 2.0 0.00 0.02 0.00 87 1019.4
20260902051550 57 184 1.0 2.0 0.00 0.02 0.00 88 1019.2
20260902050049 57 174 1.0 4.0 0.00 0.02 0.00 88 1019.1
20260902044550 57 0 0.0 0.0 0.00 0.02 0.00 89 1019.1
20260902043049 57 188 1.0 2.0 0.00 0.02 0.00 88 1019.0
20260902041549 58 0 0.0 0.0 0.00 0.02 0.00 86 1019.3
20260902034550 58 0 0.0 0.0 0.00 0.02 0.00 86 1019.3
20260902033048 58 0 0.0 2.0 0.00 0.02 0.00 86 1019.4
20260902031548 58 0 0.0 0.0 0.00 0.02 0.00 86 1019.3
20260902030048 58 185 0.0 2.0 0.00 0.02 0.00 86 1019.4
20260902024548 58 190 0.0 2.0 0.00 0.02 0.00 86 1019.6
20260902023048 59 204 0.0 2.0 0.00 0.02 0.00 85 1019.4
20260902021549 59 0 0.0 2.0 0.00 0.02 0.00 84 1019.7
20260902020049 59 0 0.0 2.0 0.00 0.02 0.00 83 1019.7
20260902014550 59 0 0.0 0.0 0.00 0.02 0.00 83 1019.6
20260902010048 58 176 1.0 2.0 0.00 0.02 0.00 83 1019.3
20260902004549 58 163 1.0 2.0 0.00 0.02 0.00 84 1019.6
20260902003048 57 168 1.0 4.0 0.00 0.02 0.00 85 1019.5
20260902001548 57 176 1.0 2.0 0.00 0.02 0.00 85 1019.8
20260902000048 57 181 1.0 2.0 0.00 0.02 0.00 85 1019.5
20260901234548 57 0 0.0 0.0 0.00 0.02 0.00 85 1019.6
20260901231550 57 118 0.0 2.0 0.00 0.02 0.00 85 1019.8
20260901230048 57 134 0.0 2.0 0.00 0.02 0.00 84 1019.8
20260901224549 58 117 0.0 2.0 0.00 0.02 0.00 82 1019.9
20260901223048 58 0 0.0 0.0 0.00 0.02 0.00 81 1020.2
20260901221548 58 0 0.0 0.0 0.00 0.02 0.00 82 1020.3
20260901214548 57 0 0.0 0.0 0.00 0.02 0.02 84 1020.5
20260901213048 57 0 0.0 0.0 0.00 0.02 0.02 84 1020.5
20260901211548 58 0 0.0 0.0 0.00 0.02 0.02 82 1020.6
20260901204548 59 0 0.0 0.0 0.00 0.02 0.02 80 1020.1
20260901203047 60 0 0.0 0.0 0.00 0.02 0.02 77 1020.0
20260901201547 60 0 0.0 0.0 0.00 0.02 0.02 77 1020.0
20260901200047 61 0 0.0 0.0 0.00 0.02 0.02 76 1019.7
20260901193047 62 0 0.0 0.0 0.00 0.02 0.02 71 1019.8
20260901191548 63 0 0.0 0.0 0.00 0.02 0.02 69 1020.0
20260901184547 65 266 1.0 2.0 0.00 0.02 0.02 64 1020.0
20260901183046 65 270 0.0 2.0 0.00 0.02 0.02 63 1020.0
20260901181546 66 270 0.0 2.0 0.00 0.02 0.02 61 1019.8
20260901180046 67 292 1.0 4.0 0.00 0.02 0.02 59 1019.8
20260901174548 68 285 1.0 6.0 0.00 0.02 0.02 57 1019.8
20260901173046 69 274 2.0 7.0 0.00 0.02 0.02 56 1019.7
20260901170047 71 299 2.0 7.0 0.00 0.02 0.02 52 1019.6